$B4QB,G/7nF|(B,2013$BG/(B10$B7n(B17$BF|(B,,,
$B4QB,<T(B,$B?"ED!!??H^(B,,,
$B4QB,COE@(B,$B>pJsE}3g%;%s%?!<2#!!0^EY!!#3#4!I#4#1!G!!(B24$B!%(B60$B!!7PEY!!#1#3#3!I#5#5!G!!(B15.22,,,
$B29EY7WHV9f(B,$B#A(B038,1,,
$B;~9o(B,$B5$29(B,$BIw8~(B,$BIwB.(B,$BHw9M(B
15:00:00,19.5,,0,
15:01:00,19.2,$BFn(B,3,
15:02:00,19.2,$BFn(B,1,
15:03:00,19,,0,
15:04:00,19,,0,
15:05:00,18.9,,0,
15:06:00,18.9,,0,
15:07:00,19,,0,
15:08:00,18.9,$BFn@>(B,0.5,
15:09:00,18.8,$BEl(B,1,
15:10:00,18.8,,0,
15:11:00,18.8,$BKL(B,1,
15:12:00,18.7,$B@>(B,1,
15:13:00,18.6,$B@>(B,0.5,
15:14:00,18.5,$BFn@>(B,2.5,
15:15:00,18.4,,0,
15:16:00,18.5,$BFn(B,1,
15:17:00,18.5,$B@>(B,0.5,
15:18:00,18.7,$BKL@>(B,1,
15:19:00,18.8,$BFn@>(B,1,
15:20:00,18.8,,0,
15:21:00,19,$BKL@>(B,1,
15:22:00,18.8,,0,
15:23:00,18.7,,0,
15:24:00,18.5,,0,
15:25:00,18.6,$BFn(B,1,
15:26:00,18.6,$BKL@>(B,3,
15:27:00,18.4,$BFnEl(B,1,
15:28:00,18.5,$BFnEl(B,1.5,
15:29:00,18.3,$BFn@>(B,1,
15:30:00,18.3,$BFnEl(B,2.5,
15:31:00,18.3,$BFn@>(B,2,
15:32:00,18.2,,0,
15:33:00,18.3,,0,
15:34:00,18.3,$BKL@>(B,1,
15:35:00,18.4,$BFn(B,1,
15:36:00,18.2,$BFnEl(B,3,
15:37:00,18.1,,0,
15:38:00,18.2,$BFn(B,1,
15:39:00,18,$BFn(B,1.5,
15:40:00,18,$B@>(B,1,
15:41:00,18,$BFn(B,1,
15:42:00,18,$BFn@>(B,2,
15:43:00,18.1,$BFnEl(B,1,
15:44:00,18.1,$BFn(B,3,
15:45:00,18,$BFn(B,3,
15:46:00,18.1,,0,
15:47:00,18.1,$BFn(B,1,
15:48:00,18,,0,
15:49:00,18,$BFn(B,1,
15:50:00,18,,0,
15:51:00,18,$BFnEl(B,1,
15:52:00,18,$BFnEl(B,3,
15:53:00,18.1,$BKL@>(B,1,
15:54:00,18.1,$BFnEl(B,1,
15:55:00,18.2,$BFnEl(B,2.5,
15:56:00,18.2,$BFn@>(B,1,
15:57:00,18.2,$BFn(B,2,
15:58:00,18,,0,
15:59:00,18,$BFnEl(B,3,
16:00:00,17.9,$BFn(B,1,
16:01:00,17.8,$BFn(B,1.5,
16:02:00,17.7,$BFn@>(B,1,
16:03:00,17.7,$BFnEl(B,3,
16:04:00,17.7,$BFnEl(B,3,
16:05:00,17.6,,0,
16:06:00,17.8,$BFnEl(B,1,
16:07:00,17.6,,0,
16:08:00,17.6,,0,
16:09:00,17.6,$BFn(B,1,
16:10:00,17.6,$BFnEl(B,2,
16:11:00,17.8,$BFn(B,1,
16:12:00,17.7,$BFn(B,1,
16:13:00,17.7,$BFnEl(B,1,
16:14:00,17.6,$BFnEl(B,1,
16:15:00,17.5,$BFnEl(B,1,
16:16:00,17.5,$BFn(B,1,
16:17:00,17.5,,0,
16:18:00,17.6,$BFn@>(B,1,
16:19:00,17.5,$BFnEl(B,1,
16:20:00,17.5,$BFnEl(B,3,
16:21:00,17.5,$BKL(B,3,
16:22:00,17.5,$BFnEl(B,1,
16:23:00,17.4,$BFnEl(B,1,
16:24:00,17.4,$BFnEl(B,3,
16:25:00,17.4,$BFnEl(B,1,
16:26:00,17.4,$BFn(B,1,
16:27:00,17.2,$BFnEl(B,1,
16:28:00,17.2,$BFnEl(B,3,
16:29:00,17.2,,0.5,
16:30:00,17.2,$BFnEl(B,3,
16:31:00,17.2,$BFn(B,1,
16:32:00,17.1,$BFnEl(B,1,
16:33:00,17.1,$BFn(B,1,
16:34:00,17.1,,0,
16:35:00,17,$BKL@>(B,0.5,
16:36:00,17.1,$BFnEl(B,3,
16:37:00,17,$BFnEl(B,2,
16:38:00,17.1,$BFn(B,3,
16:39:00,17.1,,0,
16:40:00,17,$BFnEl(B,1,
16:41:00,17,$BFn(B,1,
16:42:00,17,$BFnEl(B,1,
16:43:00,17.1,$BFnEl(B,3,
16:44:00,17.1,$BKL@>(B,1,
16:45:00,17.1,$BFn@>(B,1,
16:46:00,17,$BFn(B,1,
16:47:00,17,$BKLEl(B,1,
16:48:00,17,$BFn@>(B,1,
16:49:00,17,$BFn@>(B,1,
16:50:00,17,$BFnEl(B,0.5,
16:51:00,17,$BKL@>(B,1,
16:52:00,17,$BFn@>(B,1,
16:53:00,17,$BFn(B,3,
16:54:00,17,$BKL@>(B,1,
16:55:00,16.9,$BFn@>(B,1,
16:56:00,16.8,$BFn(B,1,
16:57:00,16.8,$BFn(B,1,
16:58:00,16.9,$BKLEl(B,1,
16:59:00,16.9,$BFn(B,1,
17:00:00,17,$BFnEl(B,1,